International Virtual Aviation Organisation

Eastern Europe and Northern Asia MCD

 

Карточка аэропорта UHMM

Внимание!
Информация на этой странице в стадии наполнения.
Если вы не увидели какой-то информации, или заметили неточность - пожалуйста сообщите нам!
Спасибо!
Команда RU-STAFF
Название аэропортаСокол
Название аэропорта (англ.)Sokol
Превышение574 ft. (175 m.)
Координаты59°54.666', 150°43.26'
Высота перехода2150m
Эшелон переходаQFE>=733mm:FL090; QFE<733:FL100
Коды ответчика6540-6577
Зона ОрВДМагадан РПИ (UHMM)
Данные METARUHMM 121100Z 27001MPS 9000 -SHSN OVC017CB M14/M16 Q1016 RMK QFE747 R28/00000MPS
Проноз погоды (TAF)UHMM 121046Z 1212/1318 01003G08MPS 9999 -SHSN SCT010 BKN020CB OVC070 TEMPO 1212/1224 3100 -SHSN
NOTAMshow/hide NOTAM
AWOS   TABLE

Информация о ВПП


Диспетчерские позиции

Позывной Наименование органа УВД Частота
UHMM_TWRМагадан-Вышка120.8
UHMM_APPМагадан-Подход119.3



Спутниковое изображение